Terug naar catalogus

FENGYUN 1C DEB

ActiefLEO
NORAD 32320·DEBRIS·🇨🇳 China

Gelanceerd May 10, 1999 vanaf Taiyuan Satellite Launch Center

Loading…

Volgende Passages (komende 24 uur)

TLE

VersSource: Space-Track

Epoch: Sep 13, 2026, 05:48 UTC

1 32320U 99025CXM 26256.24203551  .00001714  00000-0  58294-3 0  9992
2 32320 100.3510 173.8073 0055856 359.3779   0.7323 14.37403136661159

Volg FENGYUN 1C DEB in realtime met AllMySat

Download on the App Store